GO-32
1 25397U 98043D 17242.83549045 -.00000001 00000-0 18670-4 0 9992
2 25397 098.6137 183.6145 0002131 116.5454 243.5943 14.23627279994198
ISS
1 25544U 98067A 17243.86529757 .00001771 00000-0 34141-4 0 9999
2 25544 51.6436 21.0613 0004470 210.8540 252.9380 15.54014888 73525
NO-44
1 26931U 01043C 17243.40945889 -.00000010 00000-0 27857-4 0 9998
2 26931 67.0495 257.1111 0006857 257.4998 102.5337 14.30471072831105
SO-50
1 27607U 02058C 17243.17611294 .00000048 00000-0 27445-4 0 9993
2 27607 64.5540 256.4058 0031719 58.4040 302.0152 14.75352050790179
CO-55
1 27844U 03031E 17243.00951167 .00000070 00000-0 51517-4 0 9998
2 27844 98.6904 250.9288 0010691 126.8140 233.4020 14.22055322734954
CO-57
1 27848U 03031J 17243.87415232 .00000058 00000-0 46174-4 0 9994
2 27848 98.6996 252.0715 0010506 133.4785 226.7268 14.21668001734953
RS-22
1 27939U 03042A 17243.85711471 .00000196 00000-0 43733-4 0 9990
2 27939 97.9499 26.2043 0012673 352.4614 162.0764 14.66592088744404
NOAA-18
1 28654U 05018A 17243.50267925 .00000036 00000-0 45006-4 0 9990
2 28654 99.1794 267.5449 0013715 217.2575 142.7645 14.12346834632892
CO-58
1 28895U 05043F 17243.65883024 .00000230 00000-0 53144-4 0 9993
2 28895 97.8736 42.5088 0015449 264.3839 95.5602 14.63426621631528
Falconsat-3
1 30776U 07006E 17243.54090899 .00003972 00000-0 12441-3 0 9993
2 30776 35.4369 308.4442 0003726 284.0623 75.9688 15.32654312579829
CO-65
1 32785U 08021C 17243.36085944 .00000320 00000-0 40522-4 0 9994
2 32785 97.5638 264.1894 0011559 280.7530 79.2386 14.87932767506072
AAUSAT2
1 32788U 08021F 17243.05038766 .00000893 00000-0 88936-4 0 9999
2 32788 97.5539 276.1956 0010585 235.7416 124.2802 14.93956926506858
DO-64
1 32789U 08021G 17243.15629271 .00001875 00000-0 13593-3 0 9995
2 32789 97.5537 299.7913 0012303 198.8722 161.2051 15.05088633508146
CO-66
1 32791U 08021J 17243.04268542 .00000407 00000-0 47332-4 0 9995
2 32791 97.5598 268.4796 0011883 263.4108 96.5758 14.90284362506295
RS-30
1 32953U 08025A 17243.85850851 .00000026 00000-0 11299-3 0 9997
2 32953 82.5047 192.5997 0019951 117.4505 242.8607 12.43078878420823
PRISM
1 33493U 09002B 17243.82580269 .00000494 00000-0 49909-4 0 9992
2 33493 98.1565 129.4120 0014792 188.1733 171.9241 14.95762784467084
NOAA-19
1 33591U 09005A 17243.44170894 .00000084 00000-0 70717-4 0 9997
2 33591 99.1002 211.3648 0014983 62.5595 297.7098 14.12206626441287
TISAT-1
1 36799U 10035E 17243.33627900 .00000542 00000-0 61603-4 0 9991
2 36799 98.0703 7.6244 0013812 81.9722 278.3062 14.90464933386974
JUGNU
1 37839U 11058B 17242.75649852 .00000326 00000-0 32045-4 0 9996
2 37839 019.9626 358.3311 0018887 285.8241 227.3781 14.12590693304143
SRMSAT
1 37841U 11058D 17243.77059660 .00000301 00000-0 19990-4 0 9991
2 37841 19.9729 35.4181 0011763 191.2032 300.8428 14.10581387303964
AO-71
1 37854U 11061E 17243.21618433 .00001198 00000-0 71702-4 0 9991
2 37854 101.6938 154.9904 0166764 212.8049 146.2723 15.04302961318216
HRBE
1 37855U 11061F 17242.67868432 .00001522 00000-0 87230-4 0 9991
2 37855 101.7068 151.9378 0179855 221.3932 137.3535 15.03272646317514
ALMASAT-1
1 38078U 12006B 17243.40959096 .00025319 37747-5 27436-3 0 9992
2 38078 69.4366 289.5418 0299435 180.5157 179.5754 15.24904895296246
HORYU-2
1 38340U 12025D 17242.48665909 .00000321 00000-0 55415-4 0 9991
2 38340 098.3781 249.0317 0012846 059.3449 300.9024 14.75378553273836
RS-40
1 38735U 12041C 17243.81577492 .00000013 00000-0 21601-4 0 9992
2 38735 82.4726 277.0292 0016074 220.2270 139.7621 12.42575154231088
BEESAT-3
1 39134U 13015E 17243.39219234 .00002195 00000-0 11524-3 0 9993
2 39134 64.8648 343.6702 0039335 251.5134 108.1715 15.18014910240893
BEESAT-2
1 39136U 13015G 17243.22267960 .00001709 00000-0 99626-4 0 9996
2 39136 64.8713 355.9666 0033533 272.7841 86.9446 15.15258024240647
ZACUBE-1
1 39417U 13066B 17243.10185365 .00000301 00000-0 44460-4 0 9992
2 39417 97.6236 281.6867 0059901 26.3351 334.0886 14.80750436203860
TRITON-1
1 39427U 13066M 17242.85366960 .00000243 00000-0 46554-4 0 9997
2 39427 97.6376 253.2072 0115810 109.3487 252.0282 14.67493496201999
GOMX-1
1 39430U 13066Q 17243.61742583 .00000268 00000-0 57382-4 0 9993
2 39430 97.6691 236.9209 0152229 164.2744 196.3263 14.58904367200930
LO-74
1 39440U 13066AA 17242.70750511 .00000346 00000-0 55286-4 0 9991
2 39440 097.6247 269.9096 0082046 059.2546 301.6712 14.75490208201888
AO-73
1 39444U 13066AE 17243.58458574 .00000429 00000-0 59680-4 0 9990
2 39444 97.6251 283.2965 0058933 21.3295 339.0355 14.81492918202774
SPROUT
1 39770U 14029E 17243.83495541 .00000674 00000-0 82614-4 0 9990
2 39770 97.8753 342.4779 0010869 81.5680 278.6766 14.86340216177377
DUCHIFAT-1
1 40021U 14033M 17243.31506780 .00000684 00000-0 76859-4 0 9992
2 40021 97.9137 156.5762 0014435 56.9155 303.3446 14.89957488173787
NANOSATCBR1
1 40024U 14033Q 17243.75448165 .00000595 00000-0 68735-4 0 9990
2 40024 97.9093 155.7833 0013736 57.0527 303.2009 14.89274835173792
EO-79
1 40025U 14033R 17243.30403148 .00000442 00000-0 53646-4 0 9990
2 40025 97.9071 154.2620 0013913 61.2907 298.9706 14.88467832173663
DTUSAT-2
1 40030U 14033W 17243.73174424 .00000439 00000-0 53771-4 0 9990
2 40030 97.9034 153.7237 0013317 55.3478 304.8992 14.88089648173682
EO-80
1 40032U 14033Y 17243.30655568 .00000407 00000-0 50393-4 0 9990
2 40032 97.9041 153.3054 0013258 56.9814 303.2675 14.88023949173616
ANTELSAT
1 40034U 14033AA 17243.17413924 .00000293 00000-0 51264-4 0 9996
2 40034 97.8483 124.7414 0060312 52.5038 308.1633 14.73735170171977
VELOX-1
1 40057U 14034E 17243.75914607 .00000384 00000-0 61833-4 0 9994
2 40057 98.1923 345.1288 0011379 169.1381 191.0076 14.77173952170919
DAURIA DX 1
1 40071U 14037C 17243.73249843 .00000151 00000-0 26888-4 0 9997
2 40071 98.3445 357.8298 0008674 161.6060 198.5473 14.81041439170150
UKUBE-1
1 40074U 14037F 17243.76697096 .00000356 00000-0 50349-4 0 9996
2 40074 98.3546 2.1123 0005210 153.3856 206.7638 14.83550569170387
HODOYOSHI-1
1 40299U 14070B 17243.78344488 .00000832 00000-0 39040-4 0 9992
2 40299 97.4007 325.3706 0012934 179.8607 276.4366 15.22367864156444
CHUBUSAT-1
1 40300U 14070C 17243.75229961 .00000944 00000-0 45515-4 0 9998
2 40300 97.3917 322.2560 0019844 192.3955 266.7113 15.20977703156273
QSAT-EOS
1 40301U 14070D 17243.80918823 .00002175 00000-0 93406-4 0 9997
2 40301 97.3858 322.5752 0026968 188.1925 281.9912 15.23447241156345
FIREBIRD FU3
1 40377U 15003B 17243.74108935 .00004166 00000-0 17719-3 0 9999
2 40377 99.1216 82.7853 0136287 111.8357 249.7431 15.15699552142451
FIREBIRD FU4
1 40378U 15003C 17243.79832025 .00004100 00000-0 17420-3 0 9996
2 40378 99.1218 82.8967 0136524 111.5499 250.0343 15.15716412142462
GRIFEX
1 40379U 15003D 17243.77415436 .00003505 00000-0 15843-3 0 9993
2 40379 99.1245 80.3278 0142468 120.1059 241.4378 15.13193566142316
NO-84
1 40654U 15025D 17243.43961461 .00008979 00000-0 16273-3 0 00685
2 40654 054.9926 260.0407 0180935 095.2671 266.8997 15.34555297011264
NO-83
1 40655U 15025E 17243.23648383 .00014940 00000-0 21298-3 0 00733
2 40655 054.9784 231.3611 0146934 111.4441 250.2309 15.45021057011271
DEORBITSAIL
1 40719U 15032E 17242.68807993 .00000548 00000-0 86718-4 0 9999
2 40719 097.9710 135.4819 0015005 264.4679 095.4819 14.76122331115313
NUDT-PHONESAT
1 40900U 15049B 17243.83505005 .00004295 00000-0 20379-3 0 9999
2 40900 97.4440 250.6998 0012819 328.4460 31.6004 15.19729872107946
